DW9170 Weather Reports


Display with metric or nautical units.
time (UTC)temp
F
wind
direction
speed
MPH
gust
MPH
rain 1hr
in
rain 24hr
in
rain mn
in
humidity
%
barometer
mb
20180118173143 20 355 3.0 7.0 0.00 0.00 0.00 67 1013.5
20180118171651 20 332 3.0 9.0 0.00 0.00 0.00 67 1013.8
20180118170145 20 355 3.0 7.0 0.00 0.00 0.00 67 1014.0
20180118164657 20 356 4.0 7.0 0.00 0.00 0.00 66 1014.3
20180118163148 20 352 3.0 9.0 0.00 0.00 0.00 67 1014.6
20180118161703 19 288 5.0 8.0 0.00 0.00 0.00 68 1015.1
20180118160152 18 351 4.0 10.0 0.00 0.00 0.00 69 1015.1
20180118154708 18 347 3.0 11.0 0.00 0.00 0.00 70 1015.3
20180118153135 17 358 3.0 6.0 0.00 0.00 0.00 70 1015.4
20180118151702 16 326 3.0 12.0 0.00 0.00 0.00 69 1015.4
20180118150152 16 283 4.0 9.0 0.00 0.00 0.00 69 1015.6
20180118144643 15 320 2.0 8.0 0.00 0.00 0.00 70 1015.6
20180118143156 14 319 6.0 11.0 0.00 0.00 0.00 70 1015.5
20180118141646 14 339 8.0 10.0 0.00 0.00 0.00 70 1015.5
20180118140159 14 328 5.0 8.0 0.00 0.00 0.00 70 1015.4
20180118134654 13 320 3.0 6.0 0.00 0.00 0.00 68 1015.4
20180118133146 13 338 2.0 4.0 0.00 0.00 0.00 69 1015.4
20180118131717 13 318 1.0 6.0 0.00 0.00 0.00 68 1015.2
20180118130146 13 251 0.0 4.0 0.00 0.00 0.00 68 1015.2
20180118124642 13 150 0.0 0.0 0.00 0.00 0.00 68 1015.1
20180118123152 13 150 0.0 2.0 0.00 0.00 0.00 69 1015.2
20180118121645 13 150 0.0 0.0 0.00 0.00 0.00 70 1015.1
20180118120153 13 150 0.0 0.0 0.00 0.00 0.00 70 1015.0
20180118114643 13 150 0.0 0.0 0.00 0.00 0.00 68 1014.8
20180118113200 14 150 0.0 2.0 0.00 0.00 0.00 67 1014.8
20180118111716 15 127 1.0 4.0 0.00 0.00 0.00 67 1014.9
20180118110147 15 127 0.0 7.0 0.00 0.00 0.00 68 1014.8
20180118104659 14 170 0.0 0.0 0.00 0.00 0.00 70 1014.9
20180118103157 13 170 0.0 3.0 0.00 0.00 0.00 71 1014.9
20180118101644 14 294 0.0 0.0 0.00 0.00 0.00 71 1014.9
20180118100130 15 294 0.0 0.0 0.00 0.00 0.00 68 1015.0
20180118094653 16 294 0.0 0.0 0.00 0.00 0.00 68 1015.0
20180118093146 17 294 0.0 5.0 0.00 0.00 0.00 67 1015.3
20180118091656 16 334 7.0 9.0 0.00 0.00 0.00 69 1015.2
20180118090145 16 265 3.0 4.0 0.00 0.00 0.00 69 1015.1
20180118084658 16 277 0.0 0.0 0.00 0.00 0.00 70 1015.2
20180118083144 16 277 0.0 8.0 0.00 0.00 0.00 71 1015.3
20180118081638 16 304 7.0 0.0 0.00 0.00 0.00 73 1015.4
20180118080151 16 290 0.0 1.0 0.00 0.00 0.00 75 1015.6
20180118074647 16 290 1.0 2.0 0.00 0.00 0.00 74 1015.6
20180118073200 17 290 0.0 0.0 0.00 0.00 0.00 73 1015.8
20180118071632 17 290 0.0 0.0 0.00 0.00 0.00 73 1015.9
20180118070142 18 290 0.0 4.0 0.00 0.00 0.00 74 1015.9
20180118064656 18 290 0.0 2.0 0.00 0.00 0.00 74 1016.0
20180118063149 18 289 0.0 2.0 0.00 0.00 0.00 74 1016.2
20180118061701 19 290 0.0 0.0 0.00 0.00 0.00 75 1016.3
20180118060158 19 290 0.0 0.0 0.00 0.00 0.00 74 1016.2
20180118054708 20 290 0.0 0.0 0.00 0.00 0.00 74 1016.5
20180118053136 21 297 1.0 4.0 0.00 0.00 0.00 74 1017.0
20180118051647 21 287 0.0 3.0 0.00 0.00 0.00 74 1017.3
20180118050147 22 316 0.0 2.0 0.00 0.00 0.00 74 1017.4
20180118044654 22 279 0.0 4.0 0.00 0.00 0.00 74 1017.4
20180118043141 23 309 4.0 7.0 0.00 0.00 0.00 75 1017.6
20180118041657 23 266 2.0 5.0 0.00 0.00 0.00 76 1017.9
20180118040146 23 312 0.0 0.0 0.00 0.00 0.00 76 1018.1
20180118034638 23 312 0.0 2.0 0.00 0.00 0.00 76 1018.0
20180118033152 24 312 0.0 1.0 0.00 0.00 0.00 77 1018.1
20180118031627 24 312 0.0 1.0 0.00 0.00 0.00 77 1018.2
20180118030152 24 312 0.0 1.0 0.00 0.00 0.00 77 1018.4
20180118024645 24 271 0.0 5.0 0.00 0.00 0.00 78 1018.4
20180118023139 24 343 2.0 5.0 0.00 0.00 0.00 79 1018.3
20180118021655 24 333 1.0 3.0 0.00 0.00 0.00 80 1018.3
20180118020208 24 333 0.0 2.0 0.00 0.00 0.00 80 1018.1
20180118014659 25 333 0.0 0.0 0.00 0.00 0.00 79 1018.1
20180118013153 25 333 0.0 0.0 0.00 0.00 0.00 80 1018.2
20180118011645 26 333 0.0 7.0 0.00 0.00 0.00 80 1018.4
20180118010155 26 320 5.0 7.0 0.00 0.00 0.00 81 1018.4
20180118004705 26 298 0.0 4.0 0.00 0.00 0.00 82 1018.7
20180118003158 26 295 1.0 6.0 0.00 0.00 0.00 83 1018.8
20180118001711 26 270 0.0 0.0 0.00 0.00 0.00 83 1018.8
20180118000141 26 270 0.0 0.0 0.00 0.00 0.00 83 1018.5
20180117234654 27 270 0.0 0.0 0.00 0.00 0.00 83 1018.6
20180117233148 27 270 0.0 0.0 0.00 0.00 0.00 83 1018.8
20180117231659 27 270 0.0 0.0 0.00 0.00 0.00 83 1018.8
20180117230151 27 271 0.0 0.0 0.00 0.00 0.00 83 1019.2
20180117224645 27 270 0.0 0.0 0.00 0.00 0.00 83 1019.3
20180117223154 27 270 0.0 0.0 0.00 0.00 0.00 82 1019.5
20180117221646 27 270 0.0 0.0 0.00 0.00 0.00 82 1019.4
20180117220155 27 270 0.0 0.0 0.00 0.00 0.00 81 1019.4
20180117214711 28 270 0.0 0.0 0.00 0.00 0.00 81 1019.5
20180117213200 28 270 0.0 0.0 0.00 0.00 0.00 81 1019.6
20180117211701 28 270 0.0 0.0 0.00 0.00 0.00 81 1019.8
20180117210208 28 270 0.0 0.0 0.00 0.00 0.00 81 1019.8
20180117204710 28 270 0.0 0.0 0.00 0.00 0.00 81 1020.0
20180117203152 28 270 0.0 0.0 0.00 0.00 0.00 81 1019.9
20180117201640 28 270 0.0 0.0 0.00 0.00 0.00 81 1019.9
20180117200145 28 270 0.0 0.0 0.00 0.00 0.00 81 1020.1
20180117194709 28 270 0.0 0.0 0.00 0.00 0.00 81 1020.5
20180117193144 28 270 0.0 0.0 0.00 0.00 0.00 81 1020.4
20180117191632 28 270 0.0 0.0 0.00 0.00 0.00 81 1020.4
20180117190152 28 270 0.0 0.0 0.00 0.00 0.00 81 1020.6
20180117184656 28 270 0.0 0.0 0.00 0.00 0.00 81 1020.9
20180117183146 28 270 0.0 0.0 0.00 0.00 0.00 81 1021.0
20180117181640 28 270 0.0 0.0 0.00 0.00 0.00 82 1021.2
20180117180150 28 270 0.0 0.0 0.00 0.00 0.00 81 1021.5
20180117174643 27 270 0.0 0.0 0.00 0.00 0.00 82 1021.8